Погода в Пантелеймоновке

Россия / Приморский край     45°38′10″N   133°35′33″E
темп.,
°C
ветер,
м/с
пор.,
м/с
влажн.,
%
обл.,
%
осадки,
мм/ч
давл.,
гПа
погр.,
м
19 мая, ср
ср1901:00+16ююз718480 0.0 1004491
04:00+14ююз616500 0.0 1004487
07:00+13ююз717605 0.0 1005494
10:00+19ююз8114941 0.0 1004669
13:00+23юз810470 0.0 1004941
16:00+24юз67446 0.0 1003913
19:00+22юз475899 0.0 1003302
22:00+16юз51283100 0.9 1007367
20 мая, чт
чт2001:00+14ююз7168875 0.0 1006422
04:00+13ююз514890 0.0 1006374
07:00+15ююз514800 0.0 1007450
10:00+21ююз710591 0.0 1006602
13:00+26юз810460 0.0 10051040
16:00+28юз68410 0.0 10031141
19:00+25юз5105499 0.0 1004376
22:00+18ююз6146659 0.9 1005350
21 мая, пт
пт2101:00+15ююз51372100 0.1 1006250
04:00+14ююз4116896 0.1 1005226
07:00+16ю136999 0.0 100696
10:00+21ююз2352100 0.4 1006534
13:00+25ю2339100 0.0 1005869
16:00+27зюз2233100 0.0 10031164
19:00+21зюз3655100 0.0 1002106
22:00+17ю3364100 0.0 100436
22 мая, сб
сб2201:00+15ююз3676100 0.0 1004110
04:00+15ююв1174100 0.0 100311
07:00+16св1176100 0.2 100435
10:00+21юв1158100 0.2 1003457
13:00+25юз3342100 0.0 10021208
16:00+26зюз4340100 0.0 10021545
19:00+23зюз2353100 0.0 100256
22:00+18ююз226199 0.0 100317
23 мая, вс
вс2301:00+16ю3572100 0.0 100570
04:00+15ююв377624 0.0 1004113
07:00+15ююв386989 0.0 1005183
10:00+22ю585137 0.0 1004540
13:00+25юз7104677 0.0 10041254
16:00+26юз795358 0.0 10021135
19:00+20зюз61181100 3.1 1004517
22:00+16юз61194100 7.7 1007407